Regional Weather Roundup
Issued by NWS

Home | Current Version | Previous Version | Graphics & Text | Print | Product List | Glossary On
Versions: 1 2 3 4 5 6 7 8 9 10 11 12 13 14 15 16 17 18 19 20 21 22 23 24 25 26 27 28 29 30 31 32 33 34 35 36 37 38 39 40 41 42 43 44 45 46 47 48 49 50
000
ASUS43 KLOT 072108
RWRIL

ILLINOIS REGIONAL WEATHER ROUNDUP
NATIONAL WEATHER SERVICE CHICAGO/ROMEOVILLE IL
300 PM CST WED DEC 07 2016

NOTE: "FAIR" INDICATES FEW OR NO CLOUDS BELOW 12,000 FEET WITH NO
SIGNIFICANT WEATHER AND/OR OBSTRUCTIONS TO VISIBILITY.

* THESE STATIONS ARE NOT UNDER NWS QUALITY CONTROL. THEY ALSO MAY NOT
  REPORT WEATHER SUCH AS PRECIPITATION OR FOG.

ILZ001-002-007-009-015-016-024-072200-
NORTHWEST ILLINOIS

CITY           SKY/WX    TMP DP  RH WIND       PRES   REMARKS
MOLINE         MOSUNNY   28  16  60 W15       30.18R WCI  16
STERLING*      PTSUNNY   25  19  78 W17       30.14F WCI  12
SAVANNA*       MOSUNNY   24  15  68 W15G23    30.14S WCI  11
$$

ILZ003-004-008-010-011-017-018-072200-
NORTH CENTRAL ILLINOIS

CITY           SKY/WX    TMP DP  RH WIND       PRES   REMARKS
ROCKFORD       CLOUDY    25  16  68 W14G24    30.12R WCI  13
FREEPORT*      MOSUNNY   23  15  72 W16       30.12R WCI   9
ROCHELLE*      MOSUNNY   25  19  77 W17       30.12S WCI  11
DE KALB*       MOSUNNY   24  18  78 W20       30.10R WCI   9
$$

ILZ005-006-012>014-019>023-072200-
NORTHEAST ILLINOIS

CITY           SKY/WX    TMP DP  RH WIND       PRES   REMARKS
CHICAGO-OHARE  PTSUNNY   26  18  71 SW15      30.09R WCI  14
CHICAGO-MIDWAY CLOUDY    28  18  66 SW16      30.10R WCI  16
AURORA         MOSUNNY   26  19  74 W17       30.12R WCI  13
LANSING*       PTSUNNY   29  24  79 W10G20    30.11S WCI  20
JOLIET*        CLOUDY    29  22  73 W12       30.14R WCI  20
WAUKEGAN       SUNNY     27  18  69 SW13G23   30.04R WCI  16
DUPAGE AIRPORT MOSUNNY   25  17  72 SW17      30.10R WCI  12
KANKAKEE*      MOSUNNY   31  22  71 W13       30.14S WCI  21
WHEELING       MOSUNNY   27  17  66 SW12      30.09R WCI  17
MORRIS*        CLOUDY    28  21  75 W13       30.13R WCI  18
ROMEOVILLE*    MOSUNNY   27  23  85 W16       30.12S WCI  14
NORTHERLY ISL    N/A     29  18  63 S12         N/A  WCI  19
$$

LMZ740>746-072200-
SOUTHERN LAKE MICHIGAN

STATION/POSITION SKY/WX   TEMP    WIND        PRES    VSBY  WAVE
                          AIR SEA DIR/SP/G                  HT/PER
                          (F)     (DEG/KT/KT) (MB)    (MI)  (FT/S)
HARRISON CRIB              30     240/ 14/ 18   N/A
BURNHAM HARBOR             28     220/ 10/ 15   N/A
CALUMET HARBOR             28     230/ 10/ 18 1018.7R
BURNS HARBOR               31     260/ 17/ 20 1019.6R
MICHIGAN CITY              31     220/ 15/ 21   N/A
$$

ILZ025>027-034>036-040-047-049-050-058-095>099-072200-
WEST-CENTRAL ILLINOIS

CITY           SKY/WX    TMP DP  RH WIND       PRES   REMARKS
QUINCY         CLOUDY    32  18  56 W12       30.21S WCI  23
GALESBURG*     CLOUDY    28  19  68 W14       30.18S WCI  17
MACOMB*        PTSUNNY   30  19  63 W16       30.22S WCI  19
JACKSONVILLE*  PTSUNNY   33  18  55 W9        30.21R WCI  25
PITTSFIELD*    CLOUDY    33  18  53 W8        30.23S WCI  26
$$

ILZ028>032-037-038-041>044-048-051>054-059>061-072200-
CENTRAL ILLINOIS

CITY           SKY/WX    TMP DP  RH WIND       PRES   REMARKS
PONTIAC        PTSUNNY   32  23  70 W17       30.16R WCI  21
BLOOMINGTON    MOSUNNY   32  21  64 W13       30.16R WCI  22
DECATUR        CLOUDY    33  19  56 W12       30.19R WCI  24
PEORIA         MOSUNNY   30  18  60 W13       30.19R WCI  20
LACON*         MOSUNNY   30  17  60 W13G23    30.17R WCI  20
LINCOLN*       MOSUNNY   34  20  56 W9        30.19R WCI  26
SPRINGFIELD    PTSUNNY   34  20  56 W14       30.21R WCI  25
TAYLORVILLE    CLOUDY    33  22  65 W8        30.21R WCI  25
$$

ILZ033-039-045-046-055>057-062-063-072200-
EAST-CENTRAL ILLINOIS

CITY           SKY/WX    TMP DP  RH WIND       PRES   REMARKS
CHAMPAIGN      CLOUDY    33  22  63 W12       30.18R WCI  24
RANTOUL*       MOSUNNY   34  25  69 W12       30.16R WCI  25
MATTOON        CLOUDY    34  22  61 W12       30.18R WCI  25
PARIS*         CLOUDY    33  25  71 W12       30.18S WCI  24
$$

ILZ079-100>102-072200-
SOUTHWEST ILLINOIS

CITY           SKY/WX    TMP DP  RH WIND       PRES   REMARKS
ALTON          CLOUDY    34  19  55 W12       30.23S WCI  25
BELLEVILLE     CLOUDY    37  16  41 NW6       30.21S WCI  33
CAHOKIA*       CLOUDY    38  16  40 NW9       30.23S WCI  31
SPARTA*        CLOUDY    37  21  53 NW5       30.23S WCI  33
$$

ILZ064>066-069>071-074>076-080>082-084>086-088>090-092>094-072200-
SOUTH-CENTRAL ILLINOIS

CITY           SKY/WX    TMP DP  RH WIND       PRES   REMARKS
CARBONDALE     CLOUDY    38  23  55 N8        30.22R WCI  32
CAIRO*         CLOUDY    42  22  43 N3        30.19S
EFFINGHAM*     MOSUNNY   36  25  63 W7        30.22R WCI  31
MARION         CLOUDY    39  23  52 N7        30.21R WCI  34
CENTRALIA*     CLOUDY    36  24  61 NW10      30.22R WCI  29
SALEM*         CLOUDY    37  21  53 W9        30.22R WCI  30
METROPOLIS*    CLOUDY    44  23  44 CALM      30.18S
$$

ILZ067-068-072-073-078-083-087-091-072200-
SOUTHEAST ILLINOIS

CITY           SKY/WX    TMP DP  RH WIND       PRES   REMARKS
LAWRENCEVILLE  CLOUDY    37  24  59 W8        30.20R WCI  31
FLORA*         CLOUDY    38  24  57 NW7       30.22R WCI  32
FAIRFIELD*     CLOUDY    37  23  55 W5        30.21R WCI  34
HARRISBURG*    CLOUDY    40  26  58 NW8       30.21R
ROBINSON*      CLOUDY    35  24  65 W8        30.20S WCI  28
CARMI*         CLOUDY    38  25  61 NW9       30.21R WCI  31
$$

ABBREVIATIONS USED IN REMARKS
   TC - TEMPERATURE IN CELSIUS
  WCI - WIND CHILL INDEX
   HX - HEAT INDEX
  VSB - VISIBILITY
$$





USA.gov is the U.S. government's official web portal to all federal, state and local government web resources and services.